Flag for Burkina Faso Weather past 2 weeks in Koudougou, Burkina Faso

Now
86 °F

Broken clouds.


Feels Like: 92 °F
Forecast: N/A
Wind: 9 mph from South

Location: Ouagadougou Airport

Current Time: Aug 27, 2014 at 3:24:29 PM

Latest Report: Aug 27, 2014 at 2:00 PM


Visibility: N/A

Pressure: 29.92 "Hg

Humidity: 62%

Dew point: 72 °F

Location of KoudougouLocation

Historic Weather in Koudougou — Graph

°F

Koudougou temperature yesterday

Maximum temperature yesterday: 86 °F (at 9:00 AM)
Minimum temperature yesterday: 73 °F (at 11:00 PM)
Average temperature yesterday: 79 °F

Past Weeks' High & Low Weather Summary

 TemperatureHumidityPressure
High99 °F (Aug 23, 11:00 AM)100% (Aug 12, 10:00 PM)30.04 "Hg (Aug 12, 10:00 PM)
Low70 °F (Aug 15, 7:00 PM)42% (Aug 23, 11:00 AM)29.80 "Hg (Aug 12, 3:00 PM)
Average79 °F83%29.93 "Hg
* Reported Aug 12 2:00 PM — Aug 27 2:00 PM, Koudougou, Weather by CustomWeather, © 2014

Note: Actual official high and low records may vary slightly from our data, if they occured in-between our weather recording intervals... More about our weather records

Advertising

Koudougou weather history for previous 24 hours

 ConditionsComfort  
Time TempWeatherWind HumidityBarometerVisibility
2:00 PM
Aug 27
86 °FBroken clouds.9 mph62%29.92 "HgN/A
1:00 PM84 °FBroken clouds.7 mph66%29.95 "HgN/A
12:00 PM82 °FBroken clouds.9 mph70%29.98 "HgN/A
11:00 AM81 °FBroken clouds.12 mph70%30.01 "HgN/A
10:00 AM77 °FPartly sunny.5 mph79%30.01 "HgN/A
9:00 AM73 °FPartly sunny.7 mph89%30.01 "HgN/A
8:00 AM72 °FLight rain. Partly sunny.7 mph94%30.01 "Hg5 mi
7:00 AM72 °FRain. Broken clouds.7 mph94%30.01 "Hg2 mi
6:00 AM72 °FBroken clouds.2 mph94%29.98 "HgN/A
5:00 AM72 °FPassing clouds.5 mph94%29.95 "HgN/A
4:00 AM72 °FPassing clouds.5 mph94%29.95 "HgN/A
3:00 AM72 °FPassing clouds.5 mph94%29.92 "HgN/A
2:00 AM72 °FPassing clouds.6 mph94%29.92 "HgN/A
1:00 AM72 °FThunderstorms. Passing clouds.6 mph94%29.95 "HgN/A
12:00 AM73 °FThunderstorms. Passing clouds.8 mph89%29.95 "HgN/A
11:00 PM
Aug 26
73 °FThunderstorms. Passing clouds.6 mph89%29.98 "HgN/A
3:00 PM79 °FPartly sunny.12 mph70%29.86 "HgN/A
Weather by CustomWeather, © 2014

See weather overviewHow to use our weather pages